Location: Newark
(45.5167°N, 11.1667°E)
Time: 14:15:36
(UTC+00:00)

Vanguard 3 - All Passes

Search period start: 10 December 2019 00:00
Search period end: 20 December 2019 00:00
Orbit: 508 x 3263 km, 33.3° (Epoch: 10 December)

Date Brightness Start Highest point End Pass type
(mag) Time Alt. Az. Time Alt. Az. Time Alt. Az.
10 Dec - 06:14:49 10° SSW 06:20:40 23° SE 06:29:13 10° E daylight
10 Dec - 08:23:17 10° SW 08:32:07 45° SSE 08:46:46 10° ESE daylight
10 Dec - 10:34:08 10° WSW 10:45:40 47° S 11:02:59 10° ESE daylight
10 Dec - 12:47:05 10° W 13:00:01 33° SSW 13:16:05 10° SSE daylight
10 Dec - 15:06:40 10° WSW 15:13:35 13° SW 15:20:47 10° SSW daylight
11 Dec - 05:05:20 10° SSE 05:07:29 11° SE 05:09:55 10° ESE visible
11 Dec - 07:10:38 10° SW 07:17:45 35° SSE 07:29:22 10° E daylight
11 Dec - 09:20:30 10° WSW 09:30:16 48° S 09:46:10 10° ESE daylight
11 Dec - 11:32:13 10° W 11:44:15 39° SSW 12:01:02 10° SE daylight
11 Dec - 13:47:15 10° WSW 13:58:17 21° SW 14:10:53 10° S daylight
12 Dec - 05:58:45 10° SSW 06:04:05 23° SE 06:11:57 10° E visible
12 Dec - 08:07:22 10° WSW 08:15:26 44° S 08:29:00 10° ESE daylight
12 Dec - 10:18:07 10° WSW 10:28:41 44° S 10:44:59 10° SE daylight
12 Dec - 12:31:04 10° W 12:42:44 29° SSW 12:57:38 10° SSE daylight
13 Dec - 04:48:53 10° SSE 04:50:56 11° SE 04:53:17 10° ESE visible
13 Dec - 06:54:43 10° SW 07:01:14 35° SSE 07:11:50 10° E daylight
13 Dec - 09:04:35 10° WSW 09:13:31 45° S 09:28:16 10° ESE daylight
13 Dec - 11:16:14 10° W 11:27:10 35° SSW 11:42:47 10° SE daylight
13 Dec - 13:31:49 10° WSW 13:40:59 18° SW 13:51:35 10° S daylight
14 Dec - 05:42:45 10° SSW 05:47:37 23° SSE 05:54:45 10° ESE visible
14 Dec - 07:51:31 10° WSW 07:58:52 42° S 08:11:18 10° ESE daylight
14 Dec - 10:02:13 10° WSW 10:11:49 40° SSW 10:26:52 10° SE daylight
14 Dec - 12:15:17 10° WSW 12:25:36 25° SSW 12:38:54 10° SSE daylight
15 Dec - 04:32:36 10° SSE 04:34:30 11° SE 04:36:40 10° ESE visible
15 Dec - 06:38:53 10° SW 06:44:47 34° SSE 06:54:24 10° ESE daylight
15 Dec - 08:48:45 10° WSW 08:56:53 41° S 09:10:21 10° ESE daylight
15 Dec - 11:00:24 10° WSW 11:10:13 31° SSW 11:24:20 10° SSE daylight
15 Dec - 13:17:09 10° WSW 13:23:51 14° SW 13:31:25 10° SSW daylight
16 Dec - 05:26:51 10° SSW 05:31:15 22° SSE 05:37:39 10° ESE visible
16 Dec - 07:35:44 10° WSW 07:42:25 39° S 07:53:38 10° ESE daylight
16 Dec - 09:46:25 10° WSW 09:55:06 35° SSW 10:08:41 10° SE daylight
16 Dec - 11:59:50 10° WSW 12:08:35 20° SSW 12:19:48 10° S daylight
17 Dec - 04:16:24 10° SSE 04:18:09 11° SE 04:20:07 10° SE visible
17 Dec - 06:23:06 10° SW 06:28:28 32° SSE 06:37:02 10° ESE daylight
17 Dec - 08:33:01 10° WSW 08:40:22 37° S 08:52:26 10° SE daylight
17 Dec - 10:44:47 10° WSW 10:53:25 26° SSW 11:05:42 10° SSE daylight
17 Dec - 13:06:00 10° SW 13:06:51 10° SW 13:07:42 10° SW daylight
18 Dec - 05:11:00 10° SSW 05:14:59 22° SSE 05:20:38 10° ESE visible
18 Dec - 07:20:02 10° WSW 07:26:04 36° S 07:36:02 10° ESE daylight
18 Dec - 09:30:46 10° WSW 09:38:30 30° SSW 09:50:24 10° SE daylight
18 Dec - 11:44:53 10° WSW 11:51:44 16° SSW 12:00:11 10° S daylight
19 Dec - 04:00:16 10° SSE 04:01:52 11° SSE 04:03:40 10° SE visible
19 Dec - 06:07:24 10° SW 06:12:15 30° SSE 06:19:46 10° ESE visible
19 Dec - 08:17:23 10° WSW 08:23:57 33° S 08:34:31 10° SE daylight
19 Dec - 10:29:25 10° WSW 10:36:44 21° SSW 10:46:50 10° SSE daylight
